#timestamp,LO_Frequency,Hit,StdDev 
1599156015.1,286046999.2,N
1599156016.0,286046999.2,N
1599156035.8,286046997.1,N
1599156055.7,286046996.9,N
1599156075.5,286046998.8,N
1599156095.3,286046998.7,N
1599156115.2,286047002.8,N
1599156135.0,286047000.0,N
1599156135.9,286047000.0,N
1599156155.8,286047000.5,N
1599156175.6,286046998.3,N
1599156195.4,286046998.1,N
1599156215.3,286046998.2,N
1599156235.1,286046999.3,N
1599156255.8,286047001.1,N
1599156275.7,286047000.6,N
1599156295.5,286046999.4,N
1599156315.4,286046997.0,N
1599156335.2,286046998.3,N
1599156355.0,286046999.5,N
1599156355.9,286046999.5,N
1599156375.8,286046998.1,N
1599156395.6,286046999.5,N
1599156415.4,286046997.4,N
1599156435.3,286046996.5,N
1599156455.1,286046995.2,N
1599156475.9,286046993.4,Y
1599156495.7,286046999.0,P
1599156515.5,286046999.1,P
1599156535.4,286047000.5,P
1599156555.2,286046998.7,N
1599156575.0,286046998.8,N
1599156575.9,286046998.8,N
1599156595.8,286046998.3,Y
1599156615.6,286047000.7,P
1599156635.5,286047001.8,N
1599156655.3,286046999.9,N
1599156675.1,286047001.1,N
1599156695.9,286046998.1,N
1599156715.7,286047002.4,N
1599156735.6,286047003.9,N
1599156755.4,286046999.9,N
1599156775.2,286047000.4,N
1599156795.1,286046998.2,N
1599156796.0,286046998.2,N
1599156815.8,286047002.5,N
1599156835.6,286046999.9,N
1599156855.5,286047003.8,N
1599156875.3,286047003.7,N
1599156895.2,286047002.3,N
1599156915.9,286046999.7,N
1599156935.7,286047002.3,N
1599156955.6,286047003.5,N
1599156975.4,286047002.9,N
1599156995.2,286047005.5,N
1599157015.1,286047002.1,N
1599157016.0,286047002.1,N
1599157035.8,286047003.2,N
1599157055.7,286047003.7,N
1599157075.5,286047005.5,N
1599157095.3,286047005.3,N
1599157115.2,286047002.9,N
1599157135.9,286047004.8,N
1599157155.7,286047004.8,N
1599157175.6,286047007.5,Y
1599157195.4,286047005.9,P
1599157215.3,286047005.9,P
1599157235.1,286047003.7,N
1599157236.0,286047003.7,N
1599157255.8,286047001.9,N
1599157275.7,286047003.7,N
1599157295.5,286047004.1,N
1599157315.3,286047004.4,Y
1599157335.2,286046996.8,P
1599157355.0,286046996.7,N
1599157355.9,286046996.7,N
1599157375.8,286046999.0,N
1599157395.6,286046997.3,N
1599157415.4,286046998.8,N
1599157435.3,286046998.4,N
1599157455.1,286046999.9,N
1599157475.8,286046998.4,N
1599157495.7,286047001.1,N
1599157515.5,286046998.7,N
1599157535.4,286047002.7,N
1599157555.2,286047000.5,N
1599157575.0,286047000.4,N
1599157575.9,286047000.4,N
1599157595.8,286046997.1,N
1599157615.6,286046997.9,N
1599157635.4,286046995.8,N
1599157655.3,286046997.7,N
1599157675.1,286046997.8,N
1599157695.9,286046997.0,N
1599157715.7,286046998.7,N
1599157735.5,286046998.9,N
1599157755.4,286046999.7,N
1599157775.2,286046998.4,N
1599157795.0,286046995.7,N
1599157795.9,286046995.7,N
1599157815.8,286046994.5,N
1599157835.6,286046994.4,N
1599157855.5,286046990.7,Y
1599157875.3,286046993.2,P
1599157895.1,286046991.4,P
1599157915.9,286046988.7,P
1599157935.7,286046990.2,N
1599157955.5,286046993.5,N
1599157975.4,286046994.0,N
1599157995.2,286046992.4,N
1599158015.1,286046994.5,N
1599158016.0,286046994.5,N
1599158035.8,286046995.4,N
1599158055.6,286046997.6,N
1599158075.5,286046995.7,N
1599158095.3,286046995.2,N
1599158115.1,286046996.9,N
1599158135.9,286046996.9,N
1599158155.7,286046997.5,N
1599158175.6,286046998.2,N
1599158195.4,286046996.7,N
1599158215.2,286046997.4,N
1599158235.1,286046993.3,N
1599158236.0,286046993.3,N
1599158255.8,286046997.7,N
1599158275.6,286046996.7,N
1599158295.5,286046997.2,N
1599158315.3,286046995.8,N
1599158335.2,286046996.0,N
1599158355.9,286046995.9,N
1599158375.7,286046994.0,N
1599158395.6,286046996.0,N
1599158415.4,286046995.7,N
1599158435.2,286046993.7,N
1599158455.1,286046993.4,N
1599158456.0,286046993.4,Y
1599158475.8,286046998.3,P
1599158495.7,286047000.0,N
1599158515.5,286047004.3,N
1599158535.3,286047001.4,N
1599158555.2,286047002.9,N
1599158575.0,286047002.9,N
1599158575.9,286047002.9,N
1599158595.8,286047003.1,N
1599158615.6,286047004.1,N
1599158635.4,286047004.3,N
1599158655.3,286047001.7,N
1599158675.1,286047002.9,N
1599158695.8,286047005.5,N
1599158715.7,286047001.6,N
1599158735.5,286047003.4,N
1599158755.4,286047003.5,N
1599158775.2,286047002.1,N
1599158795.0,286047006.0,N
1599158795.9,286047006.0,N
1599158815.8,286047005.4,N
1599158835.6,286047005.4,N
1599158855.4,286047001.9,N
1599158875.3,286047004.1,N
1599158895.1,286047002.9,N
1599158915.9,286047003.4,N
1599158935.7,286047005.7,N
1599158955.5,286047005.9,N
1599158975.4,286047002.2,N
1599158995.2,286047000.5,N
1599159015.0,286046998.1,N
1599159015.9,286046998.1,N
1599159035.8,286046999.0,N
1599159055.6,286047001.0,N
1599159075.5,286047000.7,N
1599159095.3,286046999.8,N
1599159115.1,286047003.9,N
1599159135.9,286047002.5,N
1599159155.7,286047001.4,N
1599159175.5,286047004.4,N
1599159195.4,286047005.9,N
1599159215.2,286047002.1,N
1599159235.1,286046998.8,N
1599159236.0,286046998.8,N
1599159255.8,286046998.5,N
1599159275.6,286046999.2,N
1599159295.5,286046997.6,N
1599159315.3,286046995.2,N
1599159335.2,286046995.7,N
1599159355.9,286046995.2,N
1599159375.7,286046997.5,N
1599159395.6,286046998.0,N
1599159415.4,286046997.5,N
1599159435.2,286046999.5,N
1599159455.1,286047001.0,N
1599159456.0,286047001.0,N
1599159475.8,286046998.8,N
1599159495.7,286046999.2,N
1599159515.5,286047002.1,N
1599159535.3,286047001.5,N
1599159555.2,286047003.1,N
1599159575.0,286047003.2,N
1599159575.9,286047003.2,N
1599159595.7,286047003.0,N
